STARLINK-1237, 45192

Orbit data source: Space-Track

STARLINK-1237, 45192 is a payload satellite owned by SpaceX/Seattle (US) in LEO that was launched on Mon, 17 Feb 2020 UTC via an FALCON 9 launch vehicle from the Air Force Eastern Test Range (AFETR). Payloads include a variety of satellites, spacecraft, and rockets equipped with specific instruments for various scientific and technological missions. These include communications satellites like Starlink; space stations such as the ISS; scientific satellites like the Hubble; Earth observation satellites from companies like Planet Labs, Umbra, and HawkEye 360; GPS; miniature CubeSats for education and research; and military/defense satellites.

Loading next visibility...
STARLINK-1237 details
Identifier
45192, 2020-012Q
Orbit
LEO
Last TLE update1 day ago
Origin
Flag of USSpaceX/Seattle (US)
ManufacturerSpaceX/Seattle
MissionOperational Commercial Communications
Bus & MotorSTARLINK, Unknown motor
Mass260 kg wet, ~248 kg dry
Launch date (UTC)
2020-02-17 (5 years ago)
Launch vehicle
FALCON 9
Launch site
Air Force Eastern Test Range (AFETR)
Object type
Payload
Rocket body
Debris
Shape & HBRBox + 1 Pan, 8.86 m
Radar Cross Section13.562 m², Large (>1 m²)

Expand to show TLE details & history

TLE from 1 day ago
0 STARLINK-1237
1 45192U 20012Q   24338.32673873  .00019122  00000-0  12990-2 0  9993
2 45192  53.0537 317.7581 0001314  83.3230 276.7909 15.06404335265303
Epoch: 2024-12-03T07:50Z
Definitive object data (Epoch: 2024-12-03T07:50:30.226Z)
Latitude0.00003°
Longitude127.49434°
Altitude547.97 km
Speed7.589 km/s
True Right ascension21h 11m 01s
True Declination0° 00' 00"
Sunlit
Object was in daylight at TLE epoch
Visualization TLE readout
Latitude42.43966°
Longitude-100.52607°
Altitude550.446 km
Speed7.592 km/s
Apparent Right ascension01h 13m 43s
Apparent Declination14° 02' 41"
Sunlit
Object is in full shadow
Visualization observer readout
Local Sidereal Time07:45:58
Azimuth285.889° WNW
Elevation2.945°
Doppler factor1
Orbital elements
Apogee altitude548.379 km
Perigee altitude546.559 km
Semi-major axis6,925.606 km
Eccentricity0.0001314
Inclination53.0537°
RAAN317.7581°
Arg. of periapsis83.323°
True anomaly276.77595°
Mean anomaly276.7909°
Eccentric anomaly276.78342°
Mean motion3.76579 °/min
BSTAR0.001299
Orbital period95.6 mins
Loading maneuver chart data...

STARLINK-1237 Visibility forecast

Observer location: undefined°, undefined

Span
Click to sort rows by Start time (UTC) header in descending order
Start Az.
Max El. time (UTC)
Max El. Az.
Max El.
End time (UTC)
End Az.
6 mins2024-12-05 01:26:36.957Z239.089° WSW2024-12-05 01:28:36.957Z272.793° WNW42.719°2024-12-05 01:32:36.957Z46.734° ENE
4 mins2024-12-05 03:07:36.957Z313.008° NW2024-12-05 03:08:36.957Z331.139° NNW17.965°2024-12-05 03:11:36.957Z22.693° NE
5 mins2024-12-05 06:28:36.957Z343.775° N2024-12-05 06:30:36.957Z22.726° NE21.398°2024-12-05 06:33:36.957Z74.396° E
6 mins2024-12-05 08:07:36.957Z305.437° NW2024-12-05 08:10:36.957Z206.425° SW44.08°2024-12-05 08:13:36.957Z138.006° SSE
|